This demonstration page uses our WeatherBlox Daily Observations layout. Learn more.

Left ArrowRight Arrow

Hourly Observations for June 4, 2018

Temp ( °F °C ) Dew Point ( °F °C ) Humidity (%) Winds ( mph kmh ) Pressure ( in mb ) Visibility ( mi km ) Precip ( " mm )
12:56 am 00:56 Clear 64 17.8 49 9.4 58 58 ESE 8 13 30.04 1017 10 16 0.00 0.00
1:56 am 01:56 Clear with Light Rain 64 17.8 50 10 60 60 SE 7 11 30.05 1018 3 5 0.00 0.03
2:00 am 02:00 Clear with Light Rain 64 18 52 11 64 64 SSE 7 11 30.03 1017 2 3 0.00 0.03
2:11 am 02:11 Clear with Light Rain 64 18 52 11 64 64 SSE 8 13 30.03 1017 3 5 0.00 0.00
3:56 am 03:56 Mostly Clear with Rain 66 18.9 48 8.9 52 52 S 14 22 30.05 1018 8 13 0.00 0.00
4:56 am 04:56 Mostly Cloudy 66 18.9 50 10 56 56 SSE 12 19 30.04 1017 10 16 0.00 0.00
5:56 am 05:56 Mostly Cloudy 65 18.3 51 10.6 61 61 S 10 17 30.05 1018 10 16 0.00 0.00
6:56 am 06:56 Sunny 65 18.3 52 11.1 63 63 S 13 20 30.04 1017 10 16 0.00 0.00
7:56 am 07:56 Mostly Cloudy 65 18.3 54 12.2 68 68 S 16 26 30.04 1017 10 16 0.00 0.00
8:56 am 08:56 Cloudy with Light Rain 63 17.2 58 14.4 84 84 S 12 19 30.04 1017 10 16 0.00 0.00
9:56 am 09:56 Mostly Cloudy with Light Rain 65 18.3 57 13.9 76 76 S 14 22 30.01 1016 10 16 0.00 0.00
10:44 am 10:44 Mostly Sunny 66 19 55 13 68 68 SSE 13 20 29.97 1015 10 16 0.00 0.00
10:56 am 10:56 Mostly Sunny 66 18.9 57 13.9 73 73 SE 14 22 30.00 1016 10 16 0.00 0.00
11:56 am 11:56 Sunny 71 21.7 57 13.9 61 61 S 22 35 29.98 1015 10 16 0.00 0.00
12:56 pm 12:56 Sunny 74 23.3 58 14.4 57 57 S 18 30 29.96 1014 10 16 0.00 0.00
1:56 pm 13:56 Sunny 78 25.6 60 15.6 54 54 S 21 33 29.92 1013 10 16 0.00 0.00
2:56 pm 14:56 Sunny 82 27.8 57 13.9 42 42 SSW 23 37 29.90 1012 10 16 0.00 0.00
3:56 pm 15:56 Sunny 83 28.3 58 14.4 43 43 S 21 33 29.87 1012 10 16 0.00 0.00
4:56 pm 16:56 Sunny 84 28.9 55 12.8 37 37 S 18 30 29.85 1011 10 16 0.00 0.00
5:56 pm 17:56 Sunny 83 28.3 54 12.2 37 37 S 18 30 29.84 1011 10 16 0.00 0.00
6:56 pm 18:56 Sunny 82 27.8 53 11.7 37 37 S 16 26 29.83 1010 10 16 0.00 0.00
7:56 pm 19:56 Sunny 80 26.7 53 11.7 39 39 S 14 22 29.84 1011 10 16 0.00 0.00
8:56 pm 20:56 Sunny 75 23.9 49 9.4 40 40 S 12 19 29.85 1011 10 16 0.00 0.00
9:56 pm 21:56 Clear 71 21.7 50 10 47 47 S 12 19 29.86 1011 10 16 0.00 0.00
10:56 pm 22:56 Clear 71 21.7 50 10 47 47 S 13 20 29.86 1011 10 16 0.00 0.00
11:56 pm 23:56 Clear 69 20.6 51 10.6 53 53 S 15 24 29.85 1011 10 16 0.00 0.00

Powered by AerisWeather